Home > Weather > Apeldoorn > Past weeks

Flag for Netherlands Past Weather in Apeldoorn, Netherlands — Yesterday and Last 2 Weeks

Now
77 °F

Scattered clouds.


Feels Like: 79 °F
Forecast: 64 / 78 °F
Wind: 6 mph from Northeast

Location: Deelen

Current Time: Jul 23, 2016 at 5:21:09 PM

Latest Report: Jul 23, 2016 at 4:55 PM


Visibility: N/A

Pressure: 30.07 "Hg

Humidity: 65%

Dew Point: 64 °F

Location of ApeldoornLocation

Past Weather in Apeldoorn — Graph

°F

Apeldoorn Temperature Yesterday

Maximum temperature yesterday: 77 °F (at 5:55 PM)
Minimum temperature yesterday: 63 °F (at 4:25 AM)
Average temperature yesterday: 68 °F

High & Low Weather Summary for the Past Weeks

 TemperatureHumidityPressure
High91 °F (Jul 20, 2:55 PM)100% (Jul 8, 11:55 PM)30.27 "Hg (Jul 8, 11:55 PM)
Low43 °F (Jul 14, 4:55 AM)32% (Jul 20, 3:55 PM)29.74 "Hg (Jul 10, 5:55 PM)
Average66 °F75%30.03 "Hg
* Reported Jul 8 3:25 PM — Jul 23 3:55 PM, Apeldoorn, Weather by CustomWeather, © 2016

Note: Actual official high and low records may vary slightly from our data, if they occured in-between our weather recording intervals... More about our weather records

Advertising

Apeldoorn Weather History for the Previous 24 Hours

Scroll right to see more
 ConditionsComfort  
Time TempWeatherWind HumidityBarometerVisibility
3:55 PM
Sat, Jul 23
79 °FPassing clouds.5 mph58%30.07 "HgN/A
3:25 PM79 °FPassing clouds.5 mph65%30.09 "HgN/A
2:55 PM79 °FPassing clouds.5 mph61%30.09 "HgN/A
2:25 PM77 °FWarm.5 mph65%30.09 "HgN/A
1:55 PM79 °FPassing clouds.7 mph61%30.09 "HgN/A
1:25 PM75 °FMild.6 mph69%30.09 "HgN/A
12:55 PM73 °FMild.8 mph69%30.09 "HgN/A
12:25 PM73 °FPassing clouds.6 mph69%30.09 "HgN/A
11:55 AM73 °FPassing clouds.7 mph74%30.09 "HgN/A
11:25 AM70 °FPassing clouds.7 mph78%30.09 "HgN/A
10:55 AM70 °FOvercast.5 mph78%30.09 "HgN/A
10:25 AM70 °FPassing clouds.8 mph83%30.07 "HgN/A
9:55 AM66 °FFog.6 mph88%30.07 "Hg4 mi
9:25 AM66 °FFog.7 mph88%30.07 "Hg4 mi
8:55 AM66 °FFog.6 mph88%30.07 "Hg3 mi
8:25 AM63 °FFog.6 mph100%30.07 "Hg2 mi
7:55 AM63 °FFog.7 mph100%30.07 "Hg1 mi
7:25 AM63 °FFog.7 mph100%30.07 "Hg1 mi
6:55 AM63 °FFog.7 mph100%30.07 "Hg1 mi
6:25 AM63 °FFog.6 mph100%30.07 "Hg1 mi
5:55 AM63 °FFog.6 mph100%30.07 "Hg1 mi
5:25 AM64 °FFog.8 mph94%30.04 "Hg1 mi
4:55 AM64 °FFog.5 mph94%30.04 "Hg1 mi
4:25 AM64 °FFog.2 mph94%30.07 "Hg1 mi
3:55 AM64 °FFog.6 mph94%30.04 "Hg1 mi
3:25 AM64 °FFog.5 mph94%30.04 "Hg2 mi
2:55 AM66 °FFog.5 mph94%30.04 "Hg2 mi
2:25 AM66 °FFog.6 mph94%30.04 "Hg3 mi
1:55 AM66 °FFog.3 mph94%30.04 "Hg4 mi
1:25 AM66 °FPassing clouds.3 mph94%30.04 "HgN/A
12:55 AM66 °FPassing clouds.5 mph88%30.07 "HgN/A
12:25 AM66 °FPassing clouds.3 mph88%30.04 "HgN/A
11:55 PM
Fri, Jul 22
68 °FPassing clouds.3 mph83%30.07 "HgN/A
11:25 PM68 °FMild.3 mph83%30.04 "HgN/A
10:55 PM68 °FMostly cloudy.2 mph88%30.07 "HgN/A
10:25 PM68 °FPassing clouds.5 mph83%30.04 "HgN/A
9:55 PM70 °FPartly sunny.6 mph78%30.04 "HgN/A
9:25 PM72 °FOvercast.3 mph78%30.04 "HgN/A
8:55 PM73 °FPassing clouds.5 mph74%30.04 "HgN/A
8:25 PM73 °FMild.6 mph69%30.04 "HgN/A
7:55 PM75 °FMild.6 mph65%30.04 "HgN/A
7:25 PM75 °FPassing clouds.7 mph65%30.04 "HgN/A
6:55 PM75 °FOvercast.5 mph65%30.04 "HgN/A
6:25 PM77 °FOvercast.6 mph65%30.01 "HgN/A
5:55 PM77 °FPassing clouds.6 mph61%30.04 "HgN/A
5:25 PM75 °FMild.5 mph69%30.04 "HgN/A
Weather by CustomWeather, © 2016

See weather overviewHow to use our weather pages